Voltar ao catálogo

SL-6 R/B(2)

AtivoHEO
NORAD 22324·ROCKET BODY·🇷🇺 Russia

Lançado Jan 26, 1993 de Plesetsk Cosmodrome

Loading…

Próximas Passagens (próximas 24 horas)

TLE

AtualizadoSource: Space-Track

Época: Sep 10, 2026, 20:08 UTC

1 22324U 93006D   26253.83899922  .00000103  00000-0  00000+0 0  9992
2 22324  68.2226 164.6240 4974309  92.0598 323.2318  2.03730335249972

Acompanhe SL-6 R/B(2) em tempo real com AllMySat

Download on the App Store